This demonstration page uses our WeatherBlox Daily Observations layout. Learn more.

Left ArrowRight Arrow

31.84235, -102.49876

Hourly Observations for May 10, 2021

Temp ( °F °C ) Dew Point ( °F °C ) Humidity (%) Winds ( mph kmh ) Pressure ( in mb ) Visibility ( mi km ) Precip ( " mm )
12:53 am 00:53 undefined 65 18.3 50 10 59 59 E 13 20 29.82 1010 10 16 0.00 0.00
1:53 am 01:53 undefined 64 17.8 50 10 60 60 E 12 19 29.82 1010 10 16 0.00 0.00
2:53 am 02:53 undefined 62 16.7 51 10.6 67 67 E 13 20 29.82 1010 10 16 0.00 0.00
3:53 am 03:53 undefined 62 16.7 51 10.6 67 67 E 13 20 29.83 1010 10 16 0.00 0.00
4:53 am 04:53 undefined 61 16.1 51 10.6 70 70 E 13 20 29.83 1010 10 16 0.00 0.00
5:53 am 05:53 undefined 61 16.1 51 10.6 70 70 ENE 14 22 29.85 1011 10 16 0.00 0.00
6:53 am 06:53 undefined 59 15 51 10.6 75 75 E 12 19 29.86 1011 10 16 0.00 0.00
7:53 am 07:53 undefined 58 14.4 51 10.6 78 78 E 12 19 29.90 1012 10 16 0.00 0.00
8:53 am 08:53 undefined 57 13.9 51 10.6 81 81 ENE 16 26 29.93 1013 10 16 0.00 0.00
9:53 am 09:53 undefined 58 14.4 50 10 75 75 ENE 17 28 29.93 1014 10 16 0.00 0.00
10:53 am 10:53 undefined 58 14.4 50 10 75 75 ENE 13 20 29.95 1014 10 16 0.00 0.00
11:53 am 11:53 undefined 59 15 49 9.4 69 69 NE 16 26 29.96 1015 10 16 0.00 0.00
12:53 pm 12:53 undefined 61 16.1 48 8.9 63 63 ENE 16 26 29.96 1015 10 16 0.00 0.00
1:50 pm 13:50 Cloudy 63 17 48 9 59 59 ENE 15 24 29.94 1014 10 16 0.00 0.00
1:53 pm 13:53 Cloudy 62 16.7 49 9.4 62 62 NE 15 24 29.94 1014 10 16 0.00 0.00
2:21 pm 14:21 Mostly Sunny 65 18.3 49 9.4 56 56 ENE 12 19 29.93 1013 10 16 0.00 0.00
2:53 pm 14:53 Sunny 66 18.9 49 9.4 54 54 NE 10 17 29.92 1013 10 16 0.00 0.00
3:53 pm 15:53 Sunny 70 21.1 49 9.4 47 47 ENE 14 22 29.89 1012 10 16 0.00 0.00
4:53 pm 16:53 Sunny 70 21.1 48 8.9 46 46 ENE 13 20 29.85 1011 10 16 0.00 0.00
5:53 pm 17:53 Sunny 70 21.1 49 9.4 47 47 E 13 20 29.84 1011 10 16 0.00 0.00
6:53 pm 18:53 Sunny 70 21.1 49 9.4 47 47 E 16 26 29.83 1010 10 16 0.00 0.00
7:53 pm 19:53 Sunny 67 19.4 51 10.6 57 57 E 16 26 29.84 1011 10 16 0.00 0.00
8:53 pm 20:53 Clear 63 17.2 52 11.1 68 68 E 17 28 29.86 1011 10 16 0.00 0.00
9:53 pm 21:53 Clear 60 15.6 52 11.1 75 75 E 18 30 29.88 1012 10 16 0.00 0.00
10:53 pm 22:53 Clear 59 15 51 10.6 75 75 E 17 28 29.90 1013 10 16 0.00 0.00
11:34 pm 23:34 Mostly Cloudy 58 14.4 51 10.6 78 78 E 18 30 29.94 1014 10 16 0.00 0.00
11:42 pm 23:42 Partly Cloudy 58 14.4 51 10.6 78 78 ESE 20 31 29.95 1014 10 16 0.00 0.00
11:53 pm 23:53 Mostly Cloudy 58 14.4 51 10.6 78 78 E 16 26 29.92 1013 10 16 0.00 0.00

Powered by AerisWeather